This demonstration page uses our WeatherBlox Daily Observations layout. Learn more.

Left ArrowRight Arrow

39.51506, -84.39828

Hourly Observations for April 12, 2020

Temp ( °F °C ) Dew Point ( °F °C ) Humidity (%) Winds ( mph kmh ) Pressure ( in mb ) Visibility ( mi km ) Precip ( " mm )
12:15 am 00:15 Mostly Cloudy 53 11.5 31 -0.8 43 43 SSW 9 15 29.91 1013 10 16.0934 0 0
12:35 am 00:35 Cloudy with Light Rain 51 10.7 34 1.1 52 52 SSW 9 15 29.92 1013 10 16.0934 0 0
12:55 am 00:55 Cloudy with Light Rain 51 10.4 36 2.3 58 58 SSW 10 17 29.92 1013 10 16.0934 0 0
1:15 am 01:15 Cloudy with Light Rain 50 9.8 39 3.9 67 67 S 6 9 29.92 1013 10 16.0934 0 0
1:35 am 01:35 Cloudy 48 9 42 5.3 78 78 WNW 10 17 29.96 1015 10 16.0934 0 0
1:55 am 01:55 Cloudy with Light Rain 48 8.7 41 4.8 77 77 Calm 29.95 1014 10 16.0934 0 0
2:15 am 02:15 Cloudy 47 8.3 43 6.3 87 87 NE 5 7 29.93 1014 7 11.26538 0 0
2:35 am 02:35 Cloudy with Mist and Fog 47 8.4 44 6.4 87 87 Calm 29.92 1013 3 4.82802 0 0
2:55 am 02:55 Cloudy with Light Rain 47 8.4 44 6.6 89 89 N 3 6 29.91 1013 10 16.0934 0 0
3:15 am 03:15 Cloudy 46 7.9 45 7.1 95 95 Calm 29.9 1013 10 16.0934 0 0
3:35 am 03:35 Cloudy 47 8.5 44 6.7 89 89 Calm 29.87 1012 10 16.0934 0 0
3:55 am 03:55 Mostly Cloudy 46 7.6 44 6.8 95 95 Calm 29.89 1012 10 16.0934 0 0
4:15 am 04:15 Cloudy with Light Rain 47 8.2 44 6.7 90 90 Calm 29.89 1012 10 16.0934 0 0
4:35 am 04:35 Cloudy 48 9 42 5.8 81 81 S 3 6 29.88 1012 10 16.0934 0 0
4:55 am 04:55 Cloudy 48 9.1 42 5.7 79 79 S 3 6 29.87 1012 10 16.0934 0 0
5:15 am 05:15 Mostly Cloudy 49 9.3 42 5.5 77 77 Calm 29.87 1012 10 16.0934 0 0
5:35 am 05:35 Clear 49 9.2 40 4.2 71 71 S 6 9 29.86 1011 10 16.0934 0 0
5:55 am 05:55 Clear 47 8.3 41 4.9 79 79 Calm 29.86 1011 10 16.0934 0 0
6:15 am 06:15 Cloudy 49 9.2 40 4.3 72 72 S 7 11 29.86 1011 10 16.0934 0 0
6:35 am 06:35 Cloudy 49 9.7 40 4.3 69 69 S 3 6 29.85 1011 10 16.0934 0 0
6:55 am 06:55 Cloudy 49 9.4 41 5 74 74 Calm 29.85 1011 10 16.0934 0 0
7:15 am 07:15 Mostly Cloudy 47 8.3 43 5.9 85 85 Calm 29.86 1011 10 16.0934 0 0
7:35 am 07:35 Partly Cloudy 45 7.3 44 6.5 95 95 Calm 29.87 1011 10 16.0934 0 0
7:55 am 07:55 Cloudy 47 8.4 45 7.1 92 92 Calm 29.87 1012 10 16.0934 0 0
8:15 am 08:15 Cloudy with Light Rain 47 8.5 45 7.4 93 93 Calm 29.87 1012 7 11.26538 0 0
8:35 am 08:35 Cloudy 49 9.3 46 7.6 89 89 Calm 29.88 1012 10 16.0934 0 0
8:55 am 08:55 Cloudy 52 11.2 45 7.1 76 76 Calm 29.88 1012 10 16.0934 0 0
9:15 am 09:15 Cloudy 55 12.6 41 4.8 59 59 SSW 10 17 29.88 1012 10 16.0934 0 0
9:35 am 09:35 Cloudy 56 13.2 40 4.7 57 57 SSW 10 17 29.88 1012 10 16.0934 0 0
9:55 am 09:55 Cloudy 56 13.3 41 5 57 57 S 12 19 29.88 1012 10 16.0934 0 0
10:15 am 10:15 Cloudy 56 13.4 40 4.5 55 55 S 15 24 29.87 1012 10 16.0934 0 0
10:35 am 10:35 Mostly Cloudy 58 14.6 41 5.2 54 54 S 14 22 29.86 1011 10 16.0934 0 0
10:55 am 10:55 Cloudy 58 14.5 42 5.3 54 54 S 10 17 29.86 1011 10 16.0934 0 0
11:15 am 11:15 Mostly Cloudy 60 15.7 42 5.8 52 52 S 13 20 29.83 1010 10 16.0934 0 0
11:35 am 11:35 Mostly Cloudy 62 16.5 42 5.8 49 49 S 16 26 29.82 1010 10 16.0934 0 0
11:55 am 11:55 Mostly Cloudy 63 17.1 44 6.4 50 50 SSW 17 28 29.86 1011 10 16.0934 0 0
12:15 pm 12:15 Cloudy 61 16.1 43 6.3 52 52 S 15 24 29.86 1011 10 16.0934 0 0
12:35 pm 12:35 Cloudy 61 16.2 45 7.4 56 56 SSE 10 17 29.83 1010 10 16.0934 0 0
12:55 pm 12:55 Cloudy 63 17.1 47 8.2 56 56 S 13 20 29.83 1010 10 16.0934 0 0
1:15 pm 13:15 Mostly Cloudy 65 18.2 49 9.4 57 57 S 14 22 29.82 1010 10 16.0934 0 0
1:35 pm 13:35 Partly Cloudy 66 18.8 50 10 57 57 S 13 20 29.8 1009 10 16.0934 0 0
1:55 pm 13:55 Cloudy 65 18.2 48 9 55 55 S 20 31 29.8 1009 10 16.0934 0 0
2:15 pm 14:15 Mostly Cloudy 66 19 49 9.6 55 55 S 17 28 29.79 1009 10 16.0934 0 0
2:35 pm 14:35 Mostly Cloudy 66 19 49 9.3 54 54 S 17 28 29.78 1008 10 16.0934 0 0
2:55 pm 14:55 Mostly Cloudy 64 17.8 48 8.9 56 56 S 17 28 29.77 1008 10 16.0934 0 0
3:15 pm 15:15 Cloudy 63 17.2 48 8.9 58 58 S 16 26 29.75 1007 10 16.0934 0 0
3:35 pm 15:35 Cloudy 62 16.8 48 8.7 59 59 S 16 26 29.74 1007 10 16.0934 0 0
3:55 pm 15:55 Cloudy 62 16.6 47 8.5 59 59 S 18 30 29.72 1007 10 16.0934 0 0
4:15 pm 16:15 Cloudy 62 16.5 47 8.6 60 60 S 15 24 29.73 1007 10 16.0934 0 0
4:35 pm 16:35 Cloudy 61 16.3 47 8.4 60 60 S 15 24 29.72 1007 10 16.0934 0 0
4:55 pm 16:55 Cloudy 61 16.2 47 8.1 59 59 S 14 22 29.72 1007 10 16.0934 0 0
5:15 pm 17:15 Cloudy 61 16.2 46 8 59 59 SSE 9 15 29.71 1006 10 16.0934 0 0
5:35 pm 17:35 Cloudy 61 16 46 7.8 58 58 SSE 13 20 29.7 1006 10 16.0934 0 0
5:55 pm 17:55 Cloudy 61 16 46 7.7 58 58 S 7 11 29.68 1005 10 16.0934 0 0
6:15 pm 18:15 Cloudy 61 15.9 46 7.5 58 58 S 9 15 29.69 1006 10 16.0934 0 0
6:35 pm 18:35 Cloudy with Light Rain 59 15.1 47 8.5 65 65 SSE 9 15 29.68 1005 7 11.26538 0 0
6:55 pm 18:55 Cloudy with Rain 56 13.4 50 10 80 80 SSE 7 11 29.67 1005 5 8.0467 0 0
7:15 pm 19:15 Cloudy with Rain 55 12.7 52 11 89 89 SSE 3 6 29.67 1005 3.5 5.63269 0 0
7:35 pm 19:35 Cloudy with Light Rain 55 12.5 53 11.4 93 93 SSE 8 13 29.67 1005 4 6.43736 0 0
7:55 pm 19:55 Cloudy with Light Rain 54 12.4 53 11.7 96 96 ESE 3 6 29.65 1004 3 4.82802 0 0
8:15 pm 20:15 Cloudy with Heavy Rain 54 12.2 53 11.9 98 98 E 3 6 29.61 1003 1.5 2.41401 0 0
8:35 pm 20:35 Cloudy with Light Rain 54 12.1 53 11.9 99 99 NNE 6 9 29.56 1001 5 8.0467 0 0
8:55 pm 20:55 Cloudy with Light Rain 54 12.2 54 12 99 99 Calm 29.55 1001 7 11.26538 0 0
9:15 pm 21:15 Cloudy 55 13 55 12.5 97 97 SE 6 9 29.56 1001 10 16.0934 0 0
9:35 pm 21:35 Cloudy 56 13.4 55 12.6 95 95 SE 6 9 29.55 1001 10 16.0934 0 0
9:55 pm 21:55 Cloudy 56 13.5 55 12.7 95 95 SE 5 7 29.54 1000 10 16.0934 0 0
10:15 pm 22:15 Cloudy 56 13.6 55 12.8 95 95 SSE 8 13 29.53 1000 10 16.0934 0 0
10:35 pm 22:35 Cloudy with Light Rain 56 13.6 56 13.1 97 97 SSE 7 11 29.51 999 3.5 5.63269 0 0
10:55 pm 22:55 Cloudy with Light Rain 56 13.6 56 13.2 97 97 SE 5 7 29.49 999 4 6.43736 0 0
11:15 pm 23:15 Cloudy 57 13.9 56 13.3 96 96 SSE 3 6 29.5 999 10 16.0934 0 0
11:35 pm 23:35 Cloudy with Light Rain 57 13.7 56 13.3 97 97 Calm 29.48 998 10 16.0934 0 0
11:55 pm 23:55 Cloudy with Light Rain 57 13.8 56 13.4 97 97 ESE 3 6 29.46 998 10 16.0934 0 0

Powered by AerisWeather